Stations météo

réclame
Mon MeteoGroup
Ciudad Real, Espagne (8348): Température de l'air & dewpoint: 18.01.2018 10:00:00 - 24.01.2018 10:00:00 (CET)Ciudad Real, Espagne (8348): Vitesse du vent: 18.01.2018 10:00:00 - 24.01.2018 10:00:00 (CET)Ciudad Real, Espagne (8348): Direction du vent: 18.01.2018 10:00:00 - 24.01.2018 10:00:00 (CET)Ciudad Real, Espagne (8348): reduced air pressure: 18.01.2018 10:00:00 - 24.01.2018 10:00:00 (CET)Ciudad Real, Espagne (8348): visibility: 18.01.2018 10:00:00 - 24.01.2018 10:00:00 (CET)Ciudad Real, Espagne (8348): Quantités de précipitations: 18.01.2018 10:00:00 - 24.01.2018 10:00:00 (CET)
Date & Time tt [°C] td [°C] ff [km/h] ff [knt] dd ppp [hPa] vv [km] rr [mm]
24.01.2018 10:00:00 0,4 0,4 2 1 ENE 1032,1 0,1 -
24.01.2018 09:00:00 -0,2 -0,2 2 1 NNE 1032,0 0,3 0,0
24.01.2018 08:00:00 -0,1 -0,1 2 1 N 1031,9 0,3 0,0
24.01.2018 07:00:00 -0,2 -0,2 2 1 ENE 1031,5 0,2 -
24.01.2018 06:00:00 0,5 0,5 2 1 E 1031,2 0,1 0,0
24.01.2018 05:00:00 0,4 0,4 2 1 NNW 1031,2 0,4 0,0
24.01.2018 04:00:00 0,6 0,5 2 1 NNW 1031,5 3,6 -
24.01.2018 03:00:00 1,1 0,8 4 2 NNW 1031,6 0,9 0,0
24.01.2018 02:00:00 2,0 1,7 2 1 N 1031,4 1,8 0,0
24.01.2018 01:00:00 2,6 2,3 0 0 N 1031,5 1,5 -
24.01.2018 00:00:00 3,5 2,9 2 1 WNW 1031,4 1,1 0,0
23.01.2018 23:00:00 4,7 4,4 2 1 SSE 1030,8 2,2 0,0
23.01.2018 22:00:00 5,3 4,6 5 3 SSE 1030,5 3,5 -
23.01.2018 21:00:00 6,5 5,4 2 1 N 1030,1 3,2 0,0
23.01.2018 20:00:00 8,0 6,5 4 2 NNW 1029,6 - 0,0
23.01.2018 19:00:00 9,3 7,2 2 1 N 1029,0 7 -
23.01.2018 18:00:00 10,9 7,9 4 2 E 1028,2 13 0,0
23.01.2018 17:00:00 12,0 7,7 4 2 SE 1027,8 14 0,0
23.01.2018 16:00:00 11,1 7,6 2 1 NNW 1027,8 10 -
23.01.2018 15:00:00 9,3 6,9 2 1 ESE 1028,9 10 0,0
23.01.2018 14:00:00 6,9 6,6 4 2 E 1030,3 2,8 0,0
23.01.2018 13:00:00 6,0 6,0 2 1 NNE 1031,2 0,3 -
23.01.2018 12:00:00 4,8 4,8 2 1 ENE 1032,0 0,3 0,0
23.01.2018 11:00:00 3,5 3,5 4 2 ENE 1032,5 0,1 0,0
23.01.2018 10:00:00 2,6 2,6 2 1 ENE 1032,5 - -
23.01.2018 09:00:00 2,0 2,0 4 2 ENE 1032,3 0,1 0,0
23.01.2018 08:00:00 2,1 2,1 4 2 E 1031,7 0,1 0,0
23.01.2018 07:00:00 2,5 2,5 4 2 ENE 1031,3 0,1 -
23.01.2018 06:00:00 2,8 2,8 2 1 ENE 1031,0 0,3 0,0
23.01.2018 05:00:00 3,0 3,0 2 1 E 1031,2 0,2 0,0
23.01.2018 04:00:00 3,4 3,3 2 1 ENE 1031,4 0,7 -
23.01.2018 03:00:00 3,9 3,8 4 2 NW 1031,3 0,5 0,0
23.01.2018 02:00:00 5,1 5,0 5 3 WNW 1030,9 0,3 0,0
23.01.2018 01:00:00 5,6 5,6 2 1 WSW 1031,1 0,4 -
23.01.2018 00:00:00 5,7 5,6 2 1 ENE 1031,3 0,2 0,0
22.01.2018 23:00:00 6,3 6,0 4 2 W 1030,7 0,3 0,0
22.01.2018 22:00:00 7,7 6,3 8 4 WSW 1029,9 19 -
22.01.2018 21:00:00 9,2 6,8 4 2 W 1029,3 20 0,0
22.01.2018 20:00:00 10,6 6,5 4 2 NW 1028,6 20 0,0
22.01.2018 19:00:00 12,4 6,9 4 2 W 1027,6 15 -
22.01.2018 18:00:00 14,5 6,6 8 4 WNW 1026,8 20 0,0
22.01.2018 17:00:00 15,9 6,0 9 5 WSW 1026,2 20 0,0
22.01.2018 16:00:00 16,2 7,7 2 1 S 1026,2 20 -
22.01.2018 15:00:00 15,3 8,1 5 3 NW 1026,8 20 0,0
22.01.2018 14:00:00 15,3 8,8 4 2 NNW 1027,3 20 0,0
22.01.2018 13:00:00 12,6 8,3 4 2 WNW 1028,9 20 -
22.01.2018 12:00:00 10,3 7,2 4 2 S 1030,1 18 0,0
22.01.2018 11:00:00 7,0 5,3 5 3 SSE 1031,5 18 0,0
22.01.2018 10:00:00 3,4 3,4 2 1 N 1032,1 4,0 -
22.01.2018 09:00:00 2,3 2,2 2 1 ENE 1032,2 7 0,0
22.01.2018 08:00:00 3,0 3,0 4 2 NW 1031,9 10 0,0
22.01.2018 07:00:00 2,8 2,7 2 1 SSE 1031,8 20 -
22.01.2018 06:00:00 3,3 2,4 2 1 ENE 1031,5 14 0,0
22.01.2018 05:00:00 4,4 3,7 2 1 W 1031,3 10 0,0
22.01.2018 04:00:00 5,5 4,6 2 1 S 1031,4 9 -
22.01.2018 03:00:00 6,7 5,6 4 2 SW 1031,0 15 0,0
22.01.2018 02:00:00 7,3 5,9 4 2 SW 1031,4 18 0,0
22.01.2018 01:00:00 8,0 6,5 5 3 WSW 1031,5 20 -
22.01.2018 00:00:00 8,7 6,8 5 3 SW 1031,4 20 0,0
21.01.2018 23:00:00 9,3 7,1 8 4 WSW 1031,1 20 0,0
21.01.2018 22:00:00 9,9 7,0 8 4 S 1031,0 20 -
21.01.2018 21:00:00 11,1 7,0 5 3 WSW 1030,4 20 0,0
21.01.2018 20:00:00 12,5 7,2 5 3 WSW 1029,6 20 0,0
21.01.2018 19:00:00 14,2 7,0 5 3 WNW 1028,6 20 -
21.01.2018 18:00:00 16,2 6,9 5 3 W 1027,7 20 0,0
21.01.2018 17:00:00 17,4 6,3 5 3 W 1027,3 20 0,0
21.01.2018 16:00:00 17,8 5,7 5 3 W 1027,2 20 -
21.01.2018 15:00:00 17,2 6,1 5 3 NW 1027,6 20 0,0
21.01.2018 14:00:00 16,4 6,2 5 3 W 1028,6 20 0,0
21.01.2018 13:00:00 14,5 5,8 4 2 W 1030,1 20 -
21.01.2018 12:00:00 12,5 5,6 5 3 SW 1031,4 20 0,0
21.01.2018 11:00:00 9,8 5,2 4 2 WSW 1032,1 20 0,0
21.01.2018 10:00:00 6,4 4,4 5 3 WSW 1032,5 19 -
21.01.2018 09:00:00 3,6 2,9 4 2 SW 1032,5 17 0,0
21.01.2018 08:00:00 3,7 2,2 4 2 SW 1031,9 17 0,0
21.01.2018 07:00:00 4,9 2,9 4 2 WSW 1030,9 20 -
21.01.2018 06:00:00 4,9 2,6 4 2 SSW 1030,8 20 0,0
21.01.2018 05:00:00 5,3 2,6 4 2 SW 1030,8 20 0,0
21.01.2018 04:00:00 5,3 2,1 4 2 SW 1031,3 20 -
21.01.2018 03:00:00 6,5 2,6 4 2 WSW 1030,9 20 0,0
21.01.2018 02:00:00 7,0 2,7 8 4 WSW 1030,8 20 0,0
21.01.2018 01:00:00 7,3 2,6 11 6 WSW 1030,8 20 -
21.01.2018 00:00:00 7,7 2,4 5 3 SW 1030,6 20 0,0
20.01.2018 23:00:00 8,6 2,8 8 4 WSW 1030,0 20 0,0
20.01.2018 22:00:00 9,0 3,0 5 3 W 1029,7 20 -
20.01.2018 21:00:00 9,7 2,5 9 5 WSW 1029,2 20 0,0
20.01.2018 20:00:00 10,8 2,1 9 5 W 1028,7 20 0,0
20.01.2018 19:00:00 12,0 0,4 9 5 WSW 1028,1 20 -
20.01.2018 18:00:00 13,7 0,7 9 5 WSW 1026,7 20 0,0
20.01.2018 17:00:00 15,0 4,1 11 6 W 1026,2 20 0,0
20.01.2018 16:00:00 15,7 2,8 8 4 W 1025,7 20 -
20.01.2018 15:00:00 15,9 4,3 9 5 WSW 1025,8 20 0,0
20.01.2018 14:00:00 15,3 3,7 9 5 W 1026,9 20 0,0
20.01.2018 13:00:00 12,6 5,5 8 4 W 1028,4 20 -
20.01.2018 12:00:00 10,9 5,0 4 2 W 1029,7 19 0,0
20.01.2018 11:00:00 6,9 3,9 4 2 S 1030,8 18 0,0
20.01.2018 10:00:00 2,6 2,0 2 1 NW 1031,8 16 -
20.01.2018 09:00:00 0,4 -0,2 4 2 WSW 1031,6 15 0,0
20.01.2018 08:00:00 0,6 -0,3 0 0 N 1031,3 14 0,0
20.01.2018 07:00:00 1,5 0,6 2 1 NNE 1030,2 17 -
20.01.2018 06:00:00 1,3 0,3 4 2 SW 1029,9 17 0,0
20.01.2018 05:00:00 2,2 0,7 2 1 NNW 1029,3 18 0,0
20.01.2018 04:00:00 3,0 1,5 2 1 SE 1028,7 19 -
20.01.2018 03:00:00 3,7 1,7 4 2 S 1029,2 19 0,0
20.01.2018 02:00:00 3,5 1,9 4 2 W 1029,2 14 0,0
20.01.2018 01:00:00 4,4 2,1 2 1 NNE 1028,2 14 -
20.01.2018 00:00:00 5,2 2,7 2 1 SSW 1028,1 13 0,0
19.01.2018 23:00:00 6,3 3,1 4 2 S 1027,6 14 0,0
19.01.2018 22:00:00 6,8 3,2 4 2 ESE 1026,8 18 -
19.01.2018 21:00:00 8,0 3,5 5 3 NNW 1025,8 20 0,0
19.01.2018 20:00:00 9,7 3,9 5 3 NE 1024,6 20 0,0
19.01.2018 19:00:00 11,7 4,7 2 1 E 1023,1 20 -
19.01.2018 18:00:00 14,3 4,0 4 2 NNE 1021,8 20 0,0
19.01.2018 17:00:00 15,4 3,2 4 2 NE 1020,3 20 0,0
19.01.2018 16:00:00 15,9 3,3 5 3 N 1020,2 20 -
19.01.2018 15:00:00 16,0 2,7 8 4 N 1019,8 20 0,0
19.01.2018 14:00:00 15,4 3,2 8 4 N 1020,2 20 0,0
19.01.2018 13:00:00 12,0 5,2 5 3 NW 1021,9 20 -
19.01.2018 12:00:00 9,7 3,9 4 2 NNW 1023,1 16 0,0
19.01.2018 11:00:00 6,3 3,6 4 2 SSE 1023,2 17 0,0
19.01.2018 10:00:00 3,1 2,7 2 1 E 1024,0 9 -
19.01.2018 09:00:00 2,4 2,3 4 2 S 1023,5 9 0,0
19.01.2018 08:00:00 2,2 1,9 4 2 SE 1023,1 7 0,0
19.01.2018 07:00:00 2,4 2,0 4 2 SSW 1022,4 9 -
19.01.2018 06:00:00 2,7 2,0 2 1 E 1022,2 11 0,0
19.01.2018 05:00:00 3,3 2,6 0 0 N 1022,2 11 0,0
19.01.2018 04:00:00 3,7 3,1 5 3 SSE 1022,3 14 -
19.01.2018 03:00:00 3,6 2,6 4 2 N 1022,4 13 0,0
19.01.2018 02:00:00 4,4 3,2 4 2 SSE 1022,5 14 0,0
19.01.2018 01:00:00 5,0 3,3 5 3 SE 1022,7 17 -
19.01.2018 00:00:00 5,2 3,4 2 1 E 1022,3 16 0,0
18.01.2018 23:00:00 6,0 3,3 2 1 ENE 1022,1 20 0,0
18.01.2018 22:00:00 7,2 4,3 5 3 NNW 1022,1 19 -
18.01.2018 21:00:00 8,0 5,5 5 3 N 1022,0 16 0,0
18.01.2018 20:00:00 8,9 6,0 5 3 NE 1022,0 13 0,0
18.01.2018 19:00:00 10,9 6,4 5 3 ESE 1021,5 15 -
18.01.2018 18:00:00 12,9 5,8 5 3 ESE 1020,8 20 0,0
18.01.2018 17:00:00 14,0 5,9 8 4 E 1020,2 20 0,0
18.01.2018 16:00:00 13,9 7,0 11 6 E 1020,4 20 -
18.01.2018 15:00:00 12,7 6,7 9 5 ENE 1021,4 20 0,0
18.01.2018 14:00:00 11,1 5,6 8 4 E 1023,0 19 0,0
18.01.2018 13:00:00 9,4 5,0 11 6 ENE 1024,7 20 -
18.01.2018 12:00:00 7,1 3,3 11 6 E 1026,1 20 0,0
18.01.2018 11:00:00 4,9 2,1 13 7 ENE 1027,0 20 0,0
18.01.2018 10:00:00 3,2 1,4 11 6 E 1027,3 20 -

tt = Température de l'air
td = dewpoint
ff = Vitesse du vent
dd = Direction du vent
ppp = reduced air pressure
vv = visibility
rr = Quantités de précipitations

stations d'obs. à proximité